Regional Weather Roundup
Issued by NWS

Home | Current Version | Previous Version | Text Only | Print | Product List | Glossary On
Versions: 1 2 3 4 5 6 7 8 9 10 11 12 13 14 15 16 17 18 19 20 21 22 23 24 25
000
ASUS45 KTFX 230810
RWRMT
MONTANA REGIONAL WEATHER ROUNDUP
NATIONAL WEATHER SERVICE GREAT FALLS MT
200 AM MDT WED AUG 23 2017

NOTE: "FAIR" INDICATES FEW OR NO CLOUDS BELOW 12000 FEET WITH NO
SIGNIFICANT WEATHER AND/OR OBSTRUCTIONS TO VISIBILITY.

MTZ001>007-043-230900-
WEST OF THE DIVIDE

CITY           SKY/WX    TMP DP  RH WIND       PRES   REMARKS
KALISPELL      CLEAR     51  42  71 CALM      30.00R
MISSOULA       MOCLDY    61  39  44 CALM      30.06R HAZE
BUTTE          CLEAR     52  34  50 SE6       30.22R
MULLAN PASS    CLEAR     66  34  30 SW7       30.20S
$$

MTZ008-052>055-230900-
SOUTHWEST MONTANA

CITY           SKY/WX    TMP DP  RH WIND       PRES   REMARKS
BOZEMAN        CLEAR     56  41  57 SE6       30.12S
DILLON         CLEAR     65  29  25 S6        30.17S
W YELLOWSTONE  CLEAR     43  30  61 CALM      30.30R
ENNIS          CLEAR     55  32  41 E5        30.23S
$$

MTZ009-010-012-014-046-048-049-054-230900-
EAST SLOPES AND CENTRAL MONTANA

CITY           SKY/WX    TMP DP  RH WIND       PRES   REMARKS
CUT BANK       CLEAR     60  37  42 CALM      30.03F
GREAT FALLS    CLEAR     57  32  38 S5        30.03S
MALMSTROM AFB  CLEAR     57  35  42 SW9       30.02S
HELENA         CLEAR     66  35  31 CALM      30.08S
AUGUSTA          N/A     60  31  32 NW5       30.07
BOWMANS CRNR     N/A     58  33  38 SW8       30.06
CHOTEAU          N/A     57  37  47 W7        30.06
FAIRFIELD        N/A     59  39  47 CALM      30.04
POWER            N/A     61  33  34 E6        30.02F
RAYNESFORD       N/A     57  37  46 E7        30.06
ULM              N/A     57  33  39 SE6       30.03S
$$

MTZ011-013-016-021-045-047-050-051-230900-
NORTH CENTRAL MONTANA

CITY           SKY/WX    TMP DP  RH WIND       PRES   REMARKS
HAVRE          CLEAR     61  40  45 E6        29.97F
LEWISTOWN      CLEAR     54  35  48 SE6       30.07F
N BAR RANCH      N/A     57  32  38 W3        30.13F
DENTON           N/A     61  35  37 S10       30.00F
GEYSER           N/A     60  35  38 SW12      30.05
GRASS RANGE      N/A     60  33  36 W3        30.03F
JUDITH GAP       N/A     62  33  34 S9        30.12
WINIFRED       MOCLDY    66  33  29 MISG      30.03
$$

MTZ017>020-022>027-061-062-230900-
NORTHEAST MONTANA

CITY           SKY/WX    TMP DP  RH WIND       PRES   REMARKS
GLASGOW        CLEAR     61  35  37 E12       30.03R
JORDAN           N/A     65  37  35 E6        30.03S
SIDNEY         CLEAR     55  42  61 S7        30.07
WOLF POINT     CLEAR     61  37  41 NE5       30.04S
MALTA          PTCLDY    57  41  54 E5        30.00F
$$

MTZ028>42-056>058-230900-
SOUTHCENTRAL AND SOUTHEAST MONTANA

CITY           SKY/WX    TMP DP  RH WIND       PRES   REMARKS
BAKER          CLEAR     57  42  57 E10       30.11F
BILLINGS       CLEAR     66  34  30 CALM      30.04F
LIVINGSTON     CLEAR     53  36  52 NW5       30.13R
MILES CITY     CLEAR     63  38  39 NE5       30.04R
BIG TIMBER     CLEAR     61  36  39 W9        30.13
HARLOWTON        N/A     56  32  39 MISG      30.11
LAUREL           N/A     68  34  28 NE6       30.05
$$

REGIONAL REPORTS...DAKOTAS

CITY           SKY/WX    TMP DP  RH WIND       PRES   REMARKS
WILLISTON      CLEAR     58  41  53 SW7       30.06F
MINOT          CLOUDY    60  45  57 SE5       30.06F
DICKINSON      CLEAR     53  41  63 S9        30.11S
BEACH            N/A     59  39  47 SE14      30.13F
CROSBY           N/A     57  45  62 S13       30.04F
TIOGA            N/A     57  45  62 S7        30.08S
WATFORD CITY     N/A     55  39  54 CALM      30.07S
BISMARCK       CLEAR     49  47  93 CALM      30.12S
GRAND FORKS    CLEAR     50  47  89 CALM      30.08S
FARGO          CLEAR     49  46  90 CALM      30.10R
BUFFALO SD       N/A     57  46  66 NE8       30.04F
RAPID CITY     CLEAR     57  47  69 S6        30.08S
$$

REGIONAL REPORTS...WYOMING/IDAHO/WASHINGTON

CITY           SKY/WX    TMP DP  RH WIND       PRES   REMARKS
GILLETTE       CLEAR     61  43  51 S7        30.10F
SHERIDAN       CLEAR     53  43  68 CALM      30.08F
BUFFALO WY     CLEAR     65  33  30 W9        30.16F
CODY           CLEAR     65  38  36 SW7       30.17F
YELLOWSTONE LA   N/A     40  32  73 CALM      30.40S
IDAHO FALLS    CLEAR     62  41  46 SW7       30.16R
SALMON         CLEAR     55  42  61 CALM      30.14R
BOISE          MOCLDY    72  41  32 E7        30.00R
SPOKANE        MOCLDY    68  41  37 SE7       29.97R
$$

REGIONAL REPORTS...ALBERTA

CITY           SKY/WX    TMP DP  RH WIND       PRES   REMARKS
EDMONTON       MOCLDY    55  52  88 SE5       29.96S
CALGARY        CLEAR     63  43  48 CALM      30.00F
LETHBRIDGE     CLEAR     59  39  47 VRB2      29.97S
MEDICINE HAT   CLEAR     59  48  67 CALM      29.96S
$$

REGIONAL REPORTS...SASKATCHEWAN

CITY           SKY/WX    TMP DP  RH WIND       PRES   REMARKS
SWIFT CURRENT  CLEAR     59  41  51 S9        30.00S
REGINA         CLEAR     55  41  58 SE9       30.00F
SASKATOON      PTCLDY    54  50  87 N2        30.00S
$$




USA.gov is the U.S. government's official web portal to all federal, state and local government web resources and services.